[[{"header":{"parameterUnit":"m.s-1","parameterCategory":1,"la1":30.2991,"la2":30.254,"lo1":-89.0895,"lo2":-89.0444,"dy":0.0017,"dx":0.0017,"nx":28,"ny":28,"refTime":"2024-07-20T09:00:00:Z","depth":0,"parameterNumber":2,"parameterNumberName":"U-component_of_WINDS"},"data":[0,0,0,0,0,0,0,0,0,0,0,0,0,0,0,0,0,0,0,0,0,0,0,0,0,0,0,0,0,0,0,0,0,0,0,0,0,0,0,0,0,0,0,0,0,0,0,0,0,0,0,0,0,0,0,0,0,0,1.8613,1.8613,0,1.8578,1.8578,1.8578,1.8499,1.8497,1.8496,1.8494,1.846,1.846,1.8461,0,0,0,0,0,0,0,0,0,0,0,0,0,1.861,1.8611,1.8613,1.8613,1.8612,1.8579,1.8578,1.8578,1.8499,1.8497,1.8495,1.8493,1.8459,1.846,1.8461,0,0,0,0,0,0,0,0,0,0,0,0,0,1.8597,1.8611,1.8613,1.8569,1.8565,1.8579,1.8578,1.8577,1.85,1.8497,1.8495,1.8493,1.8459,1.846,1.8461,1.8515,0,0,1.8464,1.8464,0,0,0,0,0,0,0,0,1.8598,1.8597,1.8576,1.8572,1.8567,1.854,1.8564,1.8557,1.85,1.8524,1.8494,1.8491,1.8489,1.8487,1.8486,1.8513,1.8512,1.8464,1.8464,1.8465,1.8465,0,0,0,0,0,0,0,1.8599,1.8598,1.8599,1.8576,1.8571,1.8551,1.8546,1.8562,1.8521,1.8522,1.8516,1.8513,1.8486,1.8485,1.8484,1.8511,1.8464,1.8464,1.8465,1.8465,1.8578,1.858,0,0,0,0,0,0,1.8606,1.86,1.8601,1.8598,1.8577,1.8553,1.8548,1.8552,1.852,1.8513,1.8515,1.851,1.8485,1.8483,1.8483,1.8541,1.8465,1.8465,1.8466,1.8575,1.8578,1.8581,0,0,0,0,0,0,1.8607,1.8607,1.8602,1.8597,1.8595,1.8555,1.856,1.8552,1.8551,1.8515,1.8507,1.8522,1.8483,1.8482,1.8507,1.8539,1.8466,1.8467,1.8573,1.8576,1.858,1.866,0,0,0,0,0,0,1.8607,1.8608,1.8628,1.8598,1.8596,1.8627,1.8563,1.8553,1.8553,1.8545,1.852,1.8513,1.8481,1.8506,1.8508,1.8539,1.8467,1.8569,1.8574,1.8579,1.8655,1.8666,1.8676,0,0,0,0,0,1.8607,1.8654,1.863,1.863,1.8621,1.8629,1.8627,1.8589,1.8556,1.8576,1.8552,1.8514,1.8536,1.8509,1.851,1.8542,1.8567,1.8573,1.8578,1.865,1.8664,1.8676,0,0,0,0,0,0,1.869,1.8649,1.8622,1.8661,1.8649,1.8616,1.864,1.8606,1.8604,1.8597,1.855,1.8544,1.8575,1.8562,1.8533,1.8591,1.8545,1.8551,1.8599,1.8612,1.8623,1.8625,1.8468,0,0,0,0,0,1.8712,1.8722,1.8686,1.8724,1.8719,1.8681,1.8683,1.8654,1.864,1.8635,1.8613,1.8601,1.8604,1.8608,1.8609,1.8653,1.8644,1.8675,1.8686,1.8695,1.87,1.8719,1.8731,1.8599,1.8599,1.8599,0,0,1.8759,1.8738,1.8748,1.8739,1.8727,1.8737,1.8677,1.8692,1.8698,1.8637,1.8658,1.8642,1.8625,1.8659,1.8672,1.8648,1.8735,1.8702,1.871,1.871,1.8726,1.8738,1.8749,1.8603,1.8602,1.8602,0,0,1.8849,1.8836,1.8863,1.8851,1.8832,1.8806,1.8813,1.8784,1.877,1.8791,1.8744,1.8752,1.876,1.8749,1.8744,1.8827,1.8791,1.883,1.8886,1.8904,1.8915,1.8924,1.895,1.8961,1.8835,1.8835,1.8836,0,1.891,1.8924,1.8882,1.8898,1.8895,1.8839,1.8865,1.8856,1.8839,1.8838,1.8811,1.8818,1.8803,1.8831,1.8851,1.885,1.8855,1.8831,1.8917,1.8925,1.8933,1.8958,1.8968,1.884,1.8839,1.8839,1.8839,0,1.8997,1.9008,1.9033,1.9016,1.9015,1.9037,1.8998,1.9002,1.8973,1.895,1.897,1.895,1.8944,1.8949,1.8922,1.8973,1.8958,1.8925,1.8877,1.8951,1.8973,1.8983,1.8847,1.8845,1.8844,1.8842,0,0,1.9139,1.9097,1.9106,1.9096,1.9071,1.9077,1.9096,1.909,1.9093,1.9084,1.9096,1.9103,1.9071,1.9066,1.9037,1.9053,1.9117,1.9017,1.9016,1.9034,1.9168,1.9192,1.9204,1.9093,1.9095,1.9096,1.9169,0,1.9221,1.9249,1.9211,1.9247,1.9255,1.92,1.9216,1.9201,1.9179,1.9182,1.9158,1.9162,1.9121,1.9117,1.9131,1.9106,1.9142,1.9101,1.9103,1.9103,1.9106,1.9216,1.9241,1.9311,1.9177,1.9179,1.918,0,1.9321,1.9313,1.935,1.9318,1.932,1.9335,1.9324,1.9329,1.931,1.9293,1.9286,1.925,1.9264,1.9219,1.9237,1.921,1.9208,1.9196,1.9198,1.9195,1.9145,1.9213,1.9332,1.9342,1.9194,1.9193,1.9192,0,1.9416,1.9416,1.9437,1.9431,1.9395,1.9406,1.9392,1.9371,1.9369,1.936,1.9358,1.9352,1.9348,1.9344,1.9307,1.9278,1.9328,1.9281,1.9313,1.9314,1.9324,1.9324,1.9442,1.9328,1.9328,1.9328,1.9327,0,1.951,1.9534,1.9479,1.9491,1.9516,1.9471,1.9497,1.9477,1.9458,1.9465,1.9419,1.9427,1.9379,1.9381,1.9352,1.937,1.9369,1.9354,1.9346,1.9357,1.9359,1.9354,1.9347,1.933,1.933,1.9329,1.9329,0,1.9621,1.9585,1.9603,1.9568,1.9559,1.9579,1.9548,1.9557,1.9532,1.9541,1.9541,1.9501,1.9501,1.9464,1.9457,1.9437,1.9466,1.945,1.9472,1.9466,1.9499,1.9495,1.9617,1.9629,1.9509,1.9511,1.9512,0,1.9682,1.9699,1.9664,1.9665,1.9653,1.9656,1.9652,1.9609,1.9607,1.9586,1.9598,1.9593,1.9587,1.959,1.956,1.9553,1.9535,1.9578,1.9534,1.9544,1.9532,1.9531,1.9531,1.9587,1.9589,1.959,1.9591,0,1.9794,1.9774,1.9772,1.9762,1.9759,1.9749,1.9737,1.9741,1.9692,1.9693,1.9691,1.9687,1.9678,1.9674,1.9661,1.9646,1.961,1.9605,1.9612,1.9622,1.9633,1.9624,1.9495,1.9602,1.9601,1.96,1.96,1.9599,1.988,1.9891,1.9867,1.9864,1.985,1.9839,1.9845,1.9819,1.9817,1.9806,1.978,1.9782,1.9761,1.974,1.9728,1.9728,1.9707,1.9717,1.9719,1.9722,1.9727,1.9634,1.9726,1.9726,1.9726,1.9725,1.9725,0,1.9986,1.9968,1.9966,1.9949,1.9946,1.9912,1.9896,1.9896,1.9898,1.9881,1.9875,1.9872,1.9867,1.9836,1.9827,1.9833,1.9816,1.9832,1.983,1.9827,1.9748,1.9742,1.9846,1.9846,1.9846,1.9846,1.9846,1.9846,2.0041,2.0057,2.0034,2.0042,2.0023,2.0024,2.0017,2.0006,1.9991,1.999,1.9985,1.9964,1.9941,1.9929,1.9923,1.9914,1.9911,1.9933,1.9918,1.9844,1.9833,1.9822,1.9815,1.9933,1.9933,1.9996,1.9996,1.9997]},{"header":{"parameterUnit":"m.s-1","parameterCategory":1,"la1":30.2991,"la2":30.254,"lo1":-89.0895,"lo2":-89.0444,"dy":0.0017,"dx":0.0017,"nx":28,"ny":28,"refTime":"2024-07-20T09:00:00:Z","depth":0,"parameterNumber":3,"parameterNumberName":"V-component_of_WINDS"},"data":[0,0,0,0,0,0,0,0,0,0,0,0,0,0,0,0,0,0,0,0,0,0,0,0,0,0,0,0,0,0,0,0,0,0,0,0,0,0,0,0,0,0,0,0,0,0,0,0,0,0,0,0,0,0,0,0,0,0,4.6434,4.6434,0,4.6496,4.6497,4.6498,4.6447,4.6445,4.6443,4.6441,4.6502,4.6505,4.6509,0,0,0,0,0,0,0,0,0,0,0,0,0,4.6264,4.6267,4.6433,4.6434,4.6435,4.6496,4.6497,4.6498,4.6448,4.6445,4.6442,4.644,4.65,4.6505,4.6509,0,0,0,0,0,0,0,0,0,0,0,0,0,4.6333,4.6269,4.6433,4.6417,4.6417,4.6496,4.6497,4.6498,4.6448,4.6445,4.6442,4.6439,4.6499,4.6504,4.651,4.6607,0,0,4.6526,4.6528,0,0,0,0,0,0,0,0,4.6329,4.634,4.6419,4.6419,4.6418,4.6461,4.6459,4.6534,4.6449,4.6436,4.6441,4.6437,4.649,4.6496,4.6515,4.661,4.6612,4.6527,4.653,4.6532,4.6534,0,0,0,0,0,0,0,4.6325,4.6337,4.6458,4.642,4.642,4.6405,4.6411,4.6473,4.648,4.6437,4.6433,4.6442,4.6489,4.651,4.6516,4.6613,4.6526,4.6531,4.6534,4.6537,4.6787,4.679,0,0,0,0,0,0,4.6322,4.6333,4.6456,4.646,4.6365,4.6411,4.6418,4.645,4.6479,4.6481,4.6444,4.6439,4.6502,4.651,4.6518,4.6631,4.6532,4.6537,4.654,4.6783,4.6787,4.6791,0,0,0,0,0,0,4.6319,4.6334,4.6454,4.6396,4.641,4.6417,4.6454,4.6453,4.6473,4.6485,4.6486,4.6465,4.65,4.651,4.6584,4.6632,4.654,4.6544,4.6779,4.6785,4.6789,4.686,0,0,0,0,0,0,4.6314,4.6333,4.6371,4.6397,4.6413,4.6521,4.6457,4.6457,4.6483,4.6477,4.6504,4.6505,4.6498,4.6577,4.659,4.6638,4.6549,4.6775,4.6782,4.6788,4.6853,4.6867,4.6878,0,0,0,0,0,4.6308,4.6389,4.6374,4.6389,4.6462,4.6524,4.6533,4.6524,4.6488,4.6525,4.6532,4.6505,4.6625,4.6585,4.6599,4.665,4.6772,4.678,4.6787,4.6847,4.6864,4.6878,0,0,0,0,0,0,4.6368,4.6392,4.6375,4.6467,4.6494,4.6516,4.6563,4.6543,4.658,4.6572,4.6558,4.6565,4.6642,4.6654,4.6608,4.6743,4.6692,4.6703,4.6733,4.6749,4.6761,4.6756,4.6553,0,0,0,0,0,4.6392,4.6442,4.646,4.6539,4.6553,4.6556,4.6583,4.6573,4.66,4.6611,4.6624,4.665,4.6693,4.6722,4.6763,4.6855,4.6858,4.6896,4.6909,4.6919,4.6928,4.6974,4.6991,4.6816,4.6816,4.6816,0,0,4.6442,4.6461,4.6494,4.6551,4.6571,4.6621,4.6566,4.6622,4.6658,4.6619,4.669,4.67,4.6727,4.681,4.6847,4.6822,4.6977,4.6929,4.6937,4.694,4.6984,4.7,4.7015,4.6821,4.6821,4.682,0,0,4.6558,4.6579,4.6645,4.6666,4.6696,4.6697,4.6713,4.6738,4.6743,4.6814,4.6785,4.6827,4.6903,4.6923,4.6943,4.7063,4.7038,4.7077,4.7142,4.7187,4.7201,4.7213,4.7253,4.7268,4.7086,4.7087,4.7087,0,4.6615,4.6691,4.6681,4.6739,4.6764,4.6731,4.6797,4.6817,4.6859,4.6876,4.6848,4.694,4.6957,4.7042,4.7071,4.709,4.7105,4.7073,4.72,4.7212,4.7223,4.7261,4.7276,4.7091,4.709,4.709,4.709,0,4.6759,4.6811,4.6861,4.6903,4.6933,4.6995,4.6992,4.7024,4.7011,4.7014,4.7085,4.7103,4.7146,4.7166,4.7155,4.7249,4.7232,4.7202,4.715,4.7244,4.7279,4.7294,4.7097,4.7096,4.7094,4.7093,0,0,4.6915,4.6949,4.6967,4.6984,4.7014,4.7054,4.7112,4.7155,4.7181,4.721,4.7257,4.7321,4.7293,4.7316,4.7306,4.7346,4.7436,4.7311,4.7311,4.7331,4.7538,4.7559,4.7576,4.7421,4.7423,4.7426,4.7535,0,4.703,4.7133,4.7124,4.7221,4.7267,4.7236,4.7286,4.7309,4.7313,4.7352,4.7356,4.74,4.7361,4.7374,4.7413,4.7418,4.7477,4.741,4.7461,4.7463,4.7454,4.7595,4.7618,4.772,4.7549,4.7551,4.7553,0,4.7178,4.7212,4.7314,4.7334,4.7353,4.7399,4.7435,4.7474,4.7498,4.7497,4.7522,4.7505,4.7561,4.7509,4.7584,4.7539,4.7559,4.7564,4.7568,4.7571,4.7513,4.7599,4.7753,4.7767,4.7575,4.7573,4.7572,0,4.7278,4.735,4.7419,4.7435,4.7461,4.7493,4.7506,4.7527,4.7552,4.7583,4.7598,4.7636,4.7656,4.7685,4.7677,4.764,4.7753,4.7701,4.7752,4.7752,4.7776,4.7774,4.7933,4.7793,4.7793,4.7793,4.7792,0,4.7406,4.7469,4.7463,4.7506,4.7574,4.7562,4.7629,4.7637,4.7656,4.7697,4.7673,4.7712,4.77,4.7738,4.7733,4.7794,4.7804,4.7804,4.7801,4.7805,4.7805,4.7817,4.7809,4.7797,4.7796,4.7795,4.7794,0,4.7529,4.7529,4.7601,4.762,4.7626,4.7675,4.769,4.7728,4.773,4.7782,4.7794,4.7796,4.7839,4.7834,4.7883,4.7878,4.7954,4.7944,4.7946,4.7943,4.7994,4.7988,4.8163,4.8185,4.8034,4.8035,4.8036,0,4.761,4.7657,4.7681,4.7707,4.7721,4.7764,4.7789,4.7779,4.7806,4.7835,4.7869,4.791,4.7942,4.8012,4.8017,4.8053,4.8042,4.8101,4.8047,4.8048,4.804,4.8036,4.804,4.8111,4.8113,4.8114,4.8115,0,4.7753,4.775,4.7788,4.7824,4.7855,4.7883,4.7909,4.7932,4.7924,4.7955,4.7998,4.8023,4.8072,4.8112,4.8146,4.8156,4.8134,4.8132,4.8145,4.8149,4.8147,4.8146,4.7973,4.8128,4.8127,4.8126,4.8125,4.8125,4.7856,4.7895,4.7917,4.7958,4.7977,4.8001,4.8037,4.8042,4.8079,4.8118,4.811,4.8158,4.8178,4.8221,4.8235,4.8271,4.825,4.827,4.8274,4.8279,4.8284,4.8143,4.8278,4.8277,4.8277,4.8277,4.8276,0,4.7995,4.8007,4.8046,4.8082,4.8114,4.8091,4.8118,4.8146,4.8189,4.821,4.8242,4.829,4.8328,4.8336,4.8371,4.8399,4.8389,4.8408,4.8405,4.8407,4.8302,4.8286,4.8415,4.8415,4.8415,4.8415,4.8415,4.8415,4.8071,4.8135,4.8134,4.8206,4.8217,4.8265,4.8281,4.8302,4.8319,4.8374,4.8406,4.8411,4.8425,4.8461,4.8494,4.8495,4.8508,4.8531,4.8527,4.8429,4.8415,4.8402,4.8386,4.8534,4.8534,4.8629,4.863,4.8631]}]]